Torna al catalogo

GAOFEN 14

AttivoScienzaSSO
NORAD 47231·PAYLOAD·🇨🇳 China

Lanciato Dec 6, 2020 da Xichang Satellite Launch Center

Loading…

Prossimi Passaggi (prossime 24 ore)

TLE

AggiornatoSource: Space-Track

Epoca: Sep 14, 2026, 13:02 UTC

1 47231U 20092A   26257.54373454  .00005040  00000-0  20033-3 0  9997
2 47231  97.4644 327.6477 0005231 182.9419 177.1789 15.25747337321453

Traccia GAOFEN 14 in tempo reale con AllMySat

Download on the App Store